This demonstration page uses our WeatherBlox Daily Observations layout. Learn more.

Left ArrowRight Arrow

Hourly Observations for November 26, 2022

Temp ( °F °C ) Dew Point ( °F °C ) Humidity (%) Winds ( mph kmh ) Pressure ( in mb ) Visibility ( mi km ) Precip ( " mm )
12:56 am 00:56 Clear 34 1.1 15 -9.4 45 45 SSW 9 15 30.07 1018 10 16 0.00 0.00
1:56 am 01:56 Clear 34 1.1 15 -9.4 45 45 SSW 14 22 30.03 1017 10 16 0.00 0.00
2:56 am 02:56 Clear 32 0 16 -8.9 51 51 SW 10 17 30.01 1016 10 16 0.00 0.00
3:56 am 03:56 Clear 31 -0.6 17 -8.3 56 56 SSW 14 22 29.99 1016 10 16 0.00 0.00
4:56 am 04:56 Clear 31 -0.6 16 -8.9 53 53 SW 13 20 29.95 1014 10 16 0.00 0.00
5:56 am 05:56 Clear 35 1.7 13 -10.6 39 39 WSW 10 17 29.89 1012 10 16 0.00 0.00
6:56 am 06:56 Clear 26 -3.3 15 -9.4 63 63 SSW 7 11 29.92 1013 10 16 0.00 0.00
7:56 am 07:56 Sunny 31 -0.6 17 -8.3 56 56 SW 17 28 29.91 1013 10 16 0.00 0.00
8:56 am 08:56 Sunny 35 1.7 16 -8.9 45 45 SW 12 19 29.90 1013 10 16 0.00 0.00
9:56 am 09:56 Sunny 41 5 18 -7.8 39 39 SSW 13 20 29.89 1012 10 16 0.00 0.00
10:56 am 10:56 Sunny 47 8.3 19 -7.2 32 32 WSW 12 19 29.85 1011 10 16 0.00 0.00
11:56 am 11:56 Sunny 52 11.1 19 -7.2 27 27 SW 13 20 29.81 1009 10 16 0.00 0.00
12:56 pm 12:56 Sunny 57 13.9 20 -6.7 23 23 SSW 14 22 29.78 1008 10 16 0.00 0.00
1:56 pm 13:56 Sunny 59 15 19 -7.2 21 21 SSW 16 26 29.76 1008 10 16 0.00 0.00
2:56 pm 14:56 Sunny 58 14.4 18 -7.8 21 21 WSW 9 15 29.74 1007 10 16 0.00 0.00
3:56 pm 15:56 Sunny 59 15 19 -7.2 21 21 W 6 9 29.75 1007 10 16 0.00 0.00
4:56 pm 16:56 Partly Cloudy 55 12.8 21 -6.1 26 26 NNW 12 19 29.74 1007 10 16 0.00 0.00
5:56 pm 17:56 Cloudy 53 11.7 27 -2.8 36 36 N 20 31 29.78 1008 10 16 0.00 0.00
6:56 pm 18:56 Cloudy 50 10 27 -2.8 40 40 NNE 15 24 29.82 1010 10 16 0.00 0.00
7:56 pm 19:56 Cloudy 48 8.9 28 -2.2 46 46 N 10 17 29.82 1010 10 16 0.00 0.00
8:56 pm 20:56 Mostly Clear 46 7.8 27 -2.8 47 47 N 30 48 29.81 1010 10 16 0.00 0.00
9:56 pm 21:56 Clear 42 5.6 27 -2.8 55 55 N 30 48 29.83 1010 10 16 0.00 0.00
10:56 pm 22:56 Clear 38 3.3 24 -4.4 57 57 N 26 43 29.84 1011 10 16 0.00 0.00
11:56 pm 23:56 Clear 36 2.2 26 -3.3 67 67 N 24 39 29.84 1011 10 16 0.00 0.00

Powered by AerisWeather